DLH1106 EDDF-LOWS

Flight info

Callsign DLH1106
Flight time 0h 39m
Altitude 29000
Route CINDY8S/18 CINDY Z74 HAREM DCT ASLEP DCT TAKUT DCT DINKU L603 OLETU T702 BADIT BADIT2R
Aircraft A319/M-SDE2E3FGIJ1LORWXYZ/HB1

Departure

Time 2026-05-04 16:00
Airport Frankfurt Main Airport (EDDF)

Arrival

Time 2026-05-04 16:39
Airport Salzburg Airport (LOWS)
Time Latitude Longitude Altitude Speed Heading
2026-05-04 15:24 50.04878 8.59047 365 ft 0 kts 339°
2026-05-04 15:45 50.04856 8.59060 369 ft 4 kts 339°
2026-05-04 15:45 50.04830 8.59075 371 ft 4 kts 339°
2026-05-04 15:45 50.04812 8.59085 370 ft 0 kts 340°
2026-05-04 15:48 50.04814 8.59078 371 ft 0 kts 298°
2026-05-04 15:49 50.04810 8.59066 368 ft 2 kts 245°
2026-05-04 15:49 50.04800 8.59039 368 ft 4 kts 239°
2026-05-04 15:49 50.04777 8.58968 368 ft 11 kts 246°
2026-05-04 15:49 50.04746 8.58848 369 ft 13 kts 248°
2026-05-04 15:50 50.04708 8.58705 371 ft 15 kts 246°
2026-05-04 15:50 50.04668 8.58541 371 ft 19 kts 250°
2026-05-04 15:50 50.04620 8.58340 369 ft 20 kts 249°
2026-05-04 15:50 50.04569 8.58131 365 ft 21 kts 249°
2026-05-04 15:51 50.04642 8.58000 360 ft 14 kts 339°
2026-05-04 15:51 50.04712 8.57909 359 ft 13 kts 273°
2026-05-04 15:51 50.04690 8.57826 358 ft 8 kts 251°
2026-05-04 15:51 50.04661 8.57704 359 ft 20 kts 249°
2026-05-04 15:52 50.04611 8.57495 363 ft 21 kts 250°
2026-05-04 15:52 50.04566 8.57307 359 ft 18 kts 250°
2026-05-04 15:52 50.04520 8.57115 358 ft 19 kts 250°
2026-05-04 15:52 50.04472 8.56916 364 ft 19 kts 249°
2026-05-04 15:53 50.04425 8.56714 362 ft 21 kts 250°
2026-05-04 15:53 50.04372 8.56491 357 ft 23 kts 250°
2026-05-04 15:53 50.04315 8.56256 357 ft 24 kts 249°
2026-05-04 15:53 50.04262 8.56030 357 ft 23 kts 250°
2026-05-04 15:54 50.04205 8.55793 355 ft 24 kts 249°
2026-05-04 15:54 50.04149 8.55563 357 ft 19 kts 249°
2026-05-04 15:54 50.04105 8.55378 358 ft 18 kts 249°
2026-05-04 15:54 50.04060 8.55191 356 ft 19 kts 249°
2026-05-04 15:55 50.04012 8.54996 355 ft 20 kts 249°
2026-05-04 15:55 50.03962 8.54778 354 ft 22 kts 250°
2026-05-04 15:55 50.03909 8.54560 355 ft 21 kts 249°
2026-05-04 15:55 50.03854 8.54358 350 ft 19 kts 235°
2026-05-04 15:56 50.03787 8.54169 349 ft 21 kts 250°
2026-05-04 15:56 50.03730 8.53952 348 ft 22 kts 236°
2026-05-04 15:56 50.03661 8.53844 345 ft 4 kts 262°
2026-05-04 15:56 50.03663 8.53758 342 ft 11 kts 271°
2026-05-04 15:57 50.03651 8.53625 342 ft 16 kts 253°
2026-05-04 15:57 50.03608 8.53430 341 ft 20 kts 250°
2026-05-04 15:57 50.03557 8.53218 337 ft 22 kts 250°
2026-05-04 15:57 50.03505 8.52990 333 ft 23 kts 246°
2026-05-04 15:58 50.03440 8.52755 334 ft 24 kts 248°
2026-05-04 15:58 50.03384 8.52607 336 ft 15 kts 213°
2026-05-04 15:58 50.03338 8.52595 336 ft 0 kts 181°
2026-05-04 15:58 50.03337 8.52595 336 ft 1 kts 179°
2026-05-04 15:59 50.03332 8.52595 336 ft 0 kts 181°
2026-05-04 15:59 50.03326 8.52595 336 ft 1 kts 181°
2026-05-04 15:59 50.03282 8.52594 334 ft 21 kts 180°
2026-05-04 16:00 50.02809 8.52592 336 ft 111 kts 180°
2026-05-04 16:00 50.01810 8.52600 481 ft 163 kts 182°
2026-05-04 16:00 50.00708 8.52583 1259 ft 159 kts 183°
2026-05-04 16:00 49.99556 8.52570 1877 ft 178 kts 181°
2026-05-04 16:01 49.98256 8.52644 2535 ft 192 kts 179°
2026-05-04 16:01 49.96907 8.53134 3122 ft 211 kts 153°
2026-05-04 16:01 49.95816 8.54815 3561 ft 236 kts 121°
2026-05-04 16:01 49.95003 8.57121 3973 ft 244 kts 120°
2026-05-04 16:02 49.94271 8.59446 4002 ft 242 kts 109°
2026-05-04 16:02 49.94001 8.62096 4014 ft 262 kts 93°
2026-05-04 16:02 49.93511 8.67866 4005 ft 272 kts 111°
2026-05-04 16:03 49.92577 8.70405 4004 ft 271 kts 130°
2026-05-04 16:03 49.91199 8.72368 4014 ft 269 kts 146°
2026-05-04 16:03 49.89689 8.74022 4016 ft 271 kts 144°
2026-05-04 16:03 49.88324 8.76141 4727 ft 281 kts 128°
2026-05-04 16:04 49.87316 8.78687 6199 ft 274 kts 121°
2026-05-04 16:04 49.85436 8.83850 8557 ft 279 kts 123°
2026-05-04 16:04 49.84473 8.86482 9665 ft 283 kts 123°
2026-05-04 16:05 49.83484 8.89184 10475 ft 298 kts 123°
2026-05-04 16:05 49.82414 8.92103 10939 ft 322 kts 123°
2026-05-04 16:05 49.80108 8.98408 12356 ft 347 kts 122°
2026-05-04 16:06 49.78909 9.01700 13248 ft 353 kts 122°
2026-05-04 16:06 49.75916 9.10990 15384 ft 373 kts 109°
2026-05-04 16:07 49.74981 9.16162 16394 ft 378 kts 114°
2026-05-04 16:07 49.70494 9.26142 18656 ft 385 kts 135°
2026-05-04 16:08 49.68713 9.29279 19350 ft 389 kts 135°
2026-05-04 16:08 49.63306 9.38898 21442 ft 402 kts 131°
2026-05-04 16:09 49.60698 9.46691 22744 ft 418 kts 111°
2026-05-04 16:09 49.58885 9.55251 23925 ft 426 kts 111°
2026-05-04 16:10 49.56996 9.64008 24958 ft 432 kts 111°
2026-05-04 16:11 49.54091 9.77348 26438 ft 442 kts 112°
2026-05-04 16:11 49.52980 9.81697 26937 ft 442 kts 119°
2026-05-04 16:12 49.47596 9.93186 28370 ft 445 kts 133°
2026-05-04 16:12 49.41742 10.04256 29007 ft 443 kts 133°
2026-05-04 16:13 49.33997 10.18875 29002 ft 440 kts 133°
2026-05-04 16:14 49.26242 10.33398 28990 ft 440 kts 133°
2026-05-04 16:16 49.15700 10.50076 28971 ft 436 kts 139°
2026-05-04 16:17 49.04809 10.66196 28968 ft 437 kts 139°
2026-05-04 16:18 48.96055 10.79069 28958 ft 437 kts 139°
2026-05-04 16:19 48.85120 10.95074 28932 ft 437 kts 139°
2026-05-04 16:20 48.74150 11.11047 28919 ft 438 kts 139°
2026-05-04 16:22 48.63289 11.27283 28691 ft 443 kts 129°
2026-05-04 16:22 48.57751 11.38499 27883 ft 444 kts 129°
2026-05-04 16:23 48.52173 11.49656 27091 ft 446 kts 129°
2026-05-04 16:24 48.45573 11.65214 25086 ft 438 kts 111°
2026-05-04 16:25 48.43552 11.73748 23703 ft 430 kts 112°
2026-05-04 16:26 48.39864 11.88954 21374 ft 412 kts 112°
2026-05-04 16:26 48.36939 12.00927 19772 ft 400 kts 112°
2026-05-04 16:27 48.35031 12.08718 18725 ft 393 kts 113°
2026-05-04 16:28 48.32234 12.20108 17055 ft 382 kts 113°
2026-05-04 16:28 48.29507 12.31164 15394 ft 371 kts 113°
2026-05-04 16:29 48.25966 12.45435 13138 ft 360 kts 113°
2026-05-04 16:30 48.23367 12.55838 11436 ft 349 kts 113°
2026-05-04 16:31 48.21720 12.62431 10797 ft 324 kts 113°
2026-05-04 16:31 48.19452 12.71484 9636 ft 298 kts 114°
2026-05-04 16:32 48.17232 12.79866 8396 ft 277 kts 122°
2026-05-04 16:33 48.14621 12.83734 7655 ft 261 kts 153°
2026-05-04 16:33 48.11238 12.85296 7108 ft 249 kts 167°
2026-05-04 16:34 48.07946 12.86488 6551 ft 241 kts 167°
2026-05-04 16:34 48.06317 12.87079 6277 ft 239 kts 166°
2026-05-04 16:35 48.01467 12.88835 5463 ft 239 kts 166°
2026-05-04 16:35 47.96511 12.89536 4800 ft 241 kts 163°
2026-05-04 16:36 47.94956 12.90457 4466 ft 239 kts 154°
2026-05-04 16:36 47.91938 12.92402 3837 ft 236 kts 155°
2026-05-04 16:37 47.89007 12.94262 3243 ft 217 kts 155°
2026-05-04 16:37 47.87650 12.95123 2978 ft 206 kts 154°
2026-05-04 16:37 47.85160 12.96703 2487 ft 186 kts 155°
2026-05-04 16:38 47.83037 12.98040 2013 ft 148 kts 156°
2026-05-04 16:39 47.80359 12.99737 1498 ft 136 kts 155°
2026-05-04 16:39 47.79127 13.00513 1422 ft 22 kts 186°
2026-05-04 16:40 47.79110 13.00454 1420 ft 2 kts 285°
2026-05-04 16:40 47.79120 13.00351 1420 ft 8 kts 275°
2026-05-04 16:41 47.79035 13.00320 1420 ft 9 kts 161°
2026-05-04 16:41 47.78958 13.00205 1420 ft 0 kts 274°
2026-05-04 16:42 47.79013 13.00103 1420 ft 7 kts 290°
2026-05-04 16:43 47.79031 12.99990 1420 ft 2 kts 281°
2026-05-04 16:43 47.79031 12.99988 1420 ft 0 kts 281°